Location: Eimen
(51.8766°N, 9.7806°E)
Time: 05:16:29
(UTC+00:00)

Cosmos 2221 Rocket - Pass Details

Date: 11 August 2024
Orbit: 618 x 644 km, 82.5° (Epoch: 09 September)

Event Time Altitude Azimuth Distance (km) Brightness Sun altitude
Rises 01:32:52 0° 0° (N) 2,970 8.1 -17.5°
Reaches altitude 10° 01:35:56 10° 22° (NNE) 2,055 7.5 -17.3°
Maximum altitude 01:38:48 16° 61° (ENE) 1,675 6.6 -17.0°
Drops below altitude 10° 01:41:39 10° 100° (E) 2,045 6.5 -16.8°
Sets 01:44:41 0° 122° (ESE) 2,947 7.1 -16.5°
